Hourly Weather Kozy

Today, 2 December, Wednesday

Time Temperature Precipitation Wind Pressure Humidity
00:00 -4°C° 0 mm 0 mps 732 mmHg 82%
01:00 -3°C° 0 mm 1 mps 732 mmHg 84%
02:00 -3°C° 0 mm 1 mps 732 mmHg 84%
03:00 -3°C° 0 mm 1 mps 732 mmHg 84%
04:00 -5°C° 0 mm 0 mps 731 mmHg 84%
05:00 -4°C° 0 mm 1 mps 731 mmHg 84%
06:00 -4°C° 0 mm 1 mps 731 mmHg 83%
07:00 -4°C° 0 mm 1 mps 732 mmHg 84%
08:00 -3°C° 0 mm 1 mps 732 mmHg 78%
09:00 -2°C° 0 mm 1 mps 732 mmHg 73%
10:00 -1°C° 0 mm 1 mps 732 mmHg 67%
11:00 0°C° 0 mm 1 mps 731 mmHg 66%
12:00 0°C° 0 mm 1 mps 731 mmHg 64%
13:00 +1°C° 0 mm 1 mps 730 mmHg 62%
14:00 0°C° 0 mm 1 mps 730 mmHg 68%
15:00 -1°C° 0 mm 1 mps 729 mmHg 74%
16:00 -2°C° 0 mm 1 mps 729 mmHg 80%
17:00 -2°C° 0 mm 1 mps 729 mmHg 78%
18:00 -2°C° 0 mm 1 mps 728 mmHg 75%
19:00 -2°C° 0 mm 1 mps 728 mmHg 73%
20:00 -3°C° 0 mm 1 mps 728 mmHg 72%
21:00 -3°C° 0 mm 1 mps 728 mmHg 70%
22:00 -3°C° 0 mm 1 mps 728 mmHg 68%
23:00 -2°C° 0 mm 1 mps 727 mmHg 67%

Tomorrow, 3 December, Thursday

Time Temperature Precipitation Wind Pressure Humidity
00:00 -2°C° 0 mm 1 mps 727 mmHg 66%
01:00 -2°C° 0 mm 1 mps 727 mmHg 65%
02:00 -2°C° 0 mm 1 mps 726 mmHg 64%
03:00 -2°C° 0 mm 1 mps 726 mmHg 63%
04:00 -2°C° 0 mm 1 mps 725 mmHg 62%
05:00 -1°C° 0 mm 1 mps 725 mmHg 61%
06:00 -1°C° 0 mm 1 mps 725 mmHg 60%
07:00 -1°C° 0 mm 1 mps 724 mmHg 60%
08:00 0°C° 0 mm 1 mps 724 mmHg 59%
09:00 +1°C° 0 mm 1 mps 724 mmHg 59%
10:00 +2°C° 0 mm 1 mps 724 mmHg 59%
11:00 +2°C° 0 mm 1 mps 724 mmHg 60%
12:00 +2°C° 0 mm 1 mps 724 mmHg 62%
13:00 +2°C° 0 mm 0 mps 723 mmHg 63%
14:00 +2°C° 0 mm 1 mps 723 mmHg 67%
15:00 +2°C° 0 mm 1 mps 722 mmHg 71%
16:00 +1°C° 0 mm 1 mps 722 mmHg 74%
17:00 +1°C° 0 mm 1 mps 722 mmHg 77%
18:00 +1°C° 0 mm 1 mps 722 mmHg 79%
19:00 +1°C° 0 mm 1 mps 721 mmHg 82%
20:00 +1°C° 0 mm 1 mps 721 mmHg 83%
21:00 +2°C° 0 mm 1 mps 721 mmHg 84%
22:00 +1°C° 0 mm 2 mps 720 mmHg 85%
23:00 +1°C° 0 mm 2 mps 720 mmHg 86%

Day after tomorrow, 4 December, Friday

Time Temperature Precipitation Wind Pressure Humidity
00:00 +1°C° 0 mm 2 mps 720 mmHg 87%
01:00 +2°C° 0 mm 2 mps 719 mmHg 88%
02:00 +2°C° 0 mm 2 mps 719 mmHg 88%
03:00 +2°C° 0 mm 2 mps 719 mmHg 89%
04:00 +2°C° 0 mm 2 mps 718 mmHg 89%
05:00 +2°C° 0 mm 2 mps 718 mmHg 89%
06:00 +2°C° 0 mm 2 mps 718 mmHg 89%
07:00 +2°C° 0 mm 2 mps 718 mmHg 89%
08:00 +2°C° 0 mm 3 mps 718 mmHg 86%
09:00 +2°C° 0 mm 3 mps 718 mmHg 84%
10:00 +3°C° 0 mm 3 mps 718 mmHg 82%
11:00 +4°C° 0 mm 3 mps 717 mmHg 80%
12:00 +5°C° 0 mm 3 mps 717 mmHg 78%
13:00 +7°C° 0 mm 3 mps 717 mmHg 77%
14:00 +4°C° 0 mm 3 mps 717 mmHg 80%
15:00 +3°C° 0 mm 3 mps 717 mmHg 83%
16:00 +2°C° 0 mm 3 mps 717 mmHg 86%
17:00 +2°C° 0 mm 3 mps 718 mmHg 86%
18:00 +2°C° 0 mm 3 mps 718 mmHg 87%
19:00 +2°C° 0 mm 3 mps 718 mmHg 87%
20:00 +1°C° 0 mm 3 mps 718 mmHg 87%
21:00 +1°C° 0 mm 3 mps 718 mmHg 87%
22:00 +2°C° 0 mm 2 mps 718 mmHg 87%
23:00 +2°C° 0 mm 2 mps 719 mmHg 88%

5 December, Saturday

Time Temperature Precipitation Wind Pressure Humidity
00:00 +2°C° 0 mm 2 mps 719 mmHg 88%
01:00 +2°C° 0 mm 2 mps 719 mmHg 88%
02:00 +2°C° 0 mm 2 mps 719 mmHg 88%
03:00 +2°C° 0 mm 2 mps 719 mmHg 88%
04:00 +2°C° 0 mm 2 mps 719 mmHg 88%
05:00 +1°C° 0 mm 3 mps 719 mmHg 87%
06:00 +1°C° 0 mm 3 mps 720 mmHg 87%
07:00 +1°C° 0 mm 3 mps 720 mmHg 87%
08:00 +3°C° 0 mm 3 mps 720 mmHg 85%
09:00 +4°C° 0 mm 3 mps 720 mmHg 83%
10:00 +5°C° 0 mm 3 mps 720 mmHg 81%
11:00 +5°C° 0 mm 3 mps 720 mmHg 80%
12:00 +7°C° 0 mm 3 mps 720 mmHg 79%
13:00 +8°C° 0 mm 3 mps 720 mmHg 78%
14:00 +7°C° 0 mm 3 mps 720 mmHg 81%
15:00 +5°C° 0 mm 3 mps 720 mmHg 83%
16:00 +4°C° 0 mm 3 mps 720 mmHg 85%
17:00 +4°C° 0 mm 3 mps 720 mmHg 86%
18:00 +4°C° 0 mm 3 mps 720 mmHg 86%
19:00 +4°C° 0 mm 3 mps 720 mmHg 86%
20:00 +4°C° 0 mm 3 mps 720 mmHg 86%
21:00 +4°C° 0 mm 3 mps 721 mmHg 86%
22:00 +4°C° 0 mm 3 mps 721 mmHg 86%
23:00 +4°C° 0 mm 3 mps 721 mmHg 86%

6 December, Sunday

Time Temperature Precipitation Wind Pressure Humidity
00:00 +4°C° 0 mm 3 mps 721 mmHg 85%
01:00 +4°C° 0 mm 3 mps 721 mmHg 85%
02:00 +4°C° 0 mm 3 mps 721 mmHg 85%
03:00 +4°C° 0 mm 3 mps 721 mmHg 86%
04:00 +4°C° 0 mm 3 mps 720 mmHg 86%
05:00 +4°C° 0 mm 3 mps 720 mmHg 86%
06:00 +4°C° 0 mm 3 mps 720 mmHg 86%
07:00 +4°C° 0 mm 3 mps 720 mmHg 86%
08:00 +5°C° 0 mm 3 mps 720 mmHg 84%
09:00 +5°C° 0 mm 3 mps 720 mmHg 82%
10:00 +7°C° 0 mm 3 mps 720 mmHg 79%
11:00 +8°C° 0 mm 3 mps 720 mmHg 78%
12:00 +8°C° 0 mm 3 mps 719 mmHg 77%
13:00 +8°C° 0 mm 3 mps 719 mmHg 76%
14:00 +8°C° 0 mm 3 mps 718 mmHg 78%
15:00 +6°C° 0 mm 4 mps 718 mmHg 80%
16:00 +5°C° 0 mm 4 mps 718 mmHg 82%
17:00 +5°C° 0 mm 4 mps 718 mmHg 82%
18:00 +5°C° 0 mm 4 mps 718 mmHg 83%
19:00 +5°C° 0 mm 4 mps 717 mmHg 83%
20:00 +5°C° 0.1 mm 3 mps 717 mmHg 84%
21:00 +4°C° 0.1 mm 3 mps 717 mmHg 84%
22:00 +4°C° 0.1 mm 3 mps 717 mmHg 85%
23:00 +4°C° 0 mm 3 mps 717 mmHg 85%

7 December, Monday

Time Temperature Precipitation Wind Pressure Humidity
00:00 +4°C° 0 mm 3 mps 717 mmHg 86%
01:00 +4°C° 0 mm 3 mps 717 mmHg 87%
02:00 +4°C° 0 mm 3 mps 717 mmHg 87%
03:00 +5°C° 0 mm 2 mps 717 mmHg 88%
04:00 +5°C° 0 mm 2 mps 717 mmHg 88%
05:00 +5°C° 0 mm 2 mps 718 mmHg 89%
06:00 +5°C° 0 mm 2 mps 718 mmHg 89%
07:00 +5°C° 0 mm 2 mps 718 mmHg 89%
08:00 +5°C° 0 mm 2 mps 718 mmHg 89%
09:00 +7°C° 0 mm 1 mps 719 mmHg 88%
10:00 +7°C° 0 mm 1 mps 719 mmHg 87%
11:00 +7°C° 0 mm 1 mps 719 mmHg 85%
12:00 +8°C° 0 mm 1 mps 719 mmHg 83%
13:00 +7°C° 0 mm 0 mps 719 mmHg 81%
14:00 +6°C° 0 mm 0 mps 719 mmHg 84%
15:00 +5°C° 0 mm 0 mps 719 mmHg 87%
16:00 +4°C° 0 mm 0 mps 719 mmHg 90%
17:00 +4°C° 0 mm 0 mps 720 mmHg 90%
18:00 +5°C° 0 mm 1 mps 720 mmHg 90%
19:00 +4°C° 0 mm 1 mps 720 mmHg 91%
20:00 +4°C° 0 mm 1 mps 721 mmHg 90%
21:00 +3°C° 0 mm 1 mps 721 mmHg 90%
22:00 +3°C° 0 mm 1 mps 721 mmHg 90%
23:00 +3°C° 0 mm 1 mps 721 mmHg 89%
Show more